Skagway, AK

2:28 AM AKST on February 22, 2017 (GMT -0900)
Skagway

Weather History for PAGY - February, 2014

Change the Weather History Date:

Monday, February 3, 2014

  Actual Average Record
Temperature  
Mean Temperature 28 °F -  
Max Temperature 32 °F 31 °F 45 °F (1984)
Min Temperature 24 °F 23 °F -14 °F (1968)
Degree Days  
Heating Degree Days 37    
Moisture  
Dew Point 8 °F    
Average Humidity 45    
Maximum Humidity 49    
Minimum Humidity 41    
Precipitation  
Precipitation 0.00 in - - ()
Sea Level Pressure  
Sea Level Pressure 30.70 in    
Wind  
Wind Speed 21 mph (NNE)    
Max Wind Speed 28 mph    
Max Gust Speed 37 mph    
Visibility 10 miles    
Events      
Averages and records for this station are not official NWS values.
T = Trace of Precipitation, MM = Missing Value Source: NWS Daily Summary

Daily Weather History Graph

Daily Weather History Graph

Search for Another Location

Airport or City:

Trip Planner

Search our weather history database for the weather conditions in past years. The results will help you decide how hot, cold, wet, or windy it might be!

Date:

Astronomy

Feb. 03, 2014 Rise Set
Actual Time 8:06 AM AKST 4:24 PM AKST
Civil Twilight 7:21 AM AKST 5:09 PM AKST
Nautical Twilight 6:31 AM AKST 5:59 PM AKST
Astronomical Twilight 5:44 AM AKST 6:47 PM AKST
Moon 8:57 AM AKST (2/3) 10:48 PM AKST (2/3)
Length of Visible Light 9h 48m
Length of Day
8h 17m
Waxing Crescent, 21% of the Moon is Illuminated
Feb 3
Waxing Crescent
Feb 6
First Quarter
Feb 14
Full
Feb 22
Last Quarter
Feb 28
New

Hourly Weather History & Observations

Time (AKST) Temp. Windchill Dew Point Humidity Pressure Visibility Wind Dir Wind Speed Gust Speed Precip Events Conditions
12:53 AM 32.0 °F 21.6 °F 10.9 °F 42% 30.61 in 10.0 mi NNE 15.0 mph 20.7 mph N/A   Clear
1:53 AM 30.9 °F 19.4 °F 10.9 °F 43% 30.61 in 10.0 mi NNE 17.3 mph 25.3 mph N/A   Clear
2:53 AM 30.0 °F 17.9 °F 10.9 °F 45% 30.61 in 10.0 mi NNE 18.4 mph 27.6 mph N/A   Clear
3:53 AM 30.0 °F 17.9 °F 10.9 °F 45% 30.62 in 10.0 mi NNE 18.4 mph 25.3 mph N/A   Clear
4:53 AM 28.9 °F 15.4 °F 10.9 °F 47% 30.62 in 10.0 mi NNE 21.9 mph 31.1 mph N/A   Clear
5:53 AM 28.0 °F 14.6 °F 10.0 °F 47% 30.64 in 10.0 mi NNE 20.7 mph 33.4 mph N/A   Clear
6:53 AM 27.0 °F 12.8 °F 10.0 °F 49% 30.65 in 10.0 mi NNE 21.9 mph 34.5 mph N/A   Clear
7:53 AM 27.0 °F 12.2 °F 9.0 °F 47% 30.66 in 10.0 mi NNE 24.2 mph 31.1 mph N/A   Clear
8:53 AM 26.1 °F 12.0 °F 9.0 °F 49% 30.68 in 10.0 mi NNE 20.7 mph 31.1 mph N/A   Clear
9:53 AM 26.1 °F 12.3 °F 8.1 °F 47% 30.71 in 10.0 mi NNE 19.6 mph 31.1 mph N/A   Clear
10:53 AM 26.1 °F 10.7 °F 8.1 °F 47% 30.71 in 10.0 mi NNE 25.3 mph 36.8 mph N/A   Clear
11:53 AM 28.0 °F 12.8 °F 8.1 °F 43% 30.71 in 10.0 mi NNE 27.6 mph 36.8 mph N/A   Clear
12:53 PM 28.9 °F 14.0 °F 8.1 °F 41% 30.70 in 10.0 mi NE 27.6 mph 36.8 mph N/A   Clear
1:53 PM 28.9 °F 14.5 °F 8.1 °F 41% 30.71 in 10.0 mi NNE 25.3 mph 35.7 mph N/A   Clear
2:53 PM 28.9 °F 14.8 °F 8.1 °F 41% 30.71 in 10.0 mi NNE 24.2 mph 33.4 mph N/A   Clear
3:53 PM 28.0 °F 13.3 °F 8.1 °F 43% 30.72 in 10.0 mi NNE 25.3 mph 35.7 mph N/A   Clear
4:53 PM 27.0 °F 14.7 °F 8.1 °F 45% 30.75 in 10.0 mi NNE 16.1 mph 32.2 mph N/A   Clear
5:53 PM 26.1 °F 11.6 °F 7.0 °F 44% 30.76 in 10.0 mi NNE 21.9 mph 32.2 mph N/A   Clear
6:53 PM 26.1 °F 11.3 °F 7.0 °F 44% 30.76 in 10.0 mi NNE 23.0 mph 34.5 mph N/A   Clear
7:53 PM 26.1 °F 10.4 °F 6.1 °F 43% 30.77 in 10.0 mi NNE 26.5 mph 33.4 mph N/A   Clear
8:53 PM 25.0 °F 9.5 °F 6.1 °F 45% 30.78 in 10.0 mi NNE 24.2 mph 35.7 mph N/A   Clear
9:53 PM 24.1 °F 7.7 °F 6.1 °F 46% 30.79 in 10.0 mi NE 26.5 mph 32.2 mph N/A   Clear
10:53 PM 24.1 °F 8.3 °F 6.1 °F 46% 30.81 in 10.0 mi NNE 24.2 mph 34.5 mph N/A   Clear
11:53 PM 24.1 °F 8.7 °F 5.0 °F 44% 30.82 in 10.0 mi NNE 23.0 mph 34.5 mph N/A   Clear